CDT,Max TemperatureF,Mean TemperatureF,Min TemperatureF,Max Dew PointF,MeanDew PointF,Min DewpointF,Max Humidity, Mean Humidity, Min Humidity, Max Sea Level PressureIn, Mean Sea Level PressureIn, Min Sea Level PressureIn, Max VisibilityMiles, Mean VisibilityMiles, Min VisibilityMiles, Max Wind SpeedMPH, Mean Wind SpeedMPH, Max Gust SpeedMPH,PrecipitationIn, CloudCover, Events, WindDirDegrees
2013-10-1,84,74,64,73,71,64,100,89,66,29.99,29.95,29.89,10,7,0,10,2,,0.00,,Fog,175
2013-10-2,86,77,68,73,71,68,100,85,58,30.03,29.97,29.92,10,9,2,13,2,17,0.00,,,168
2013-10-3,84,78,71,73,72,70,100,84,66,29.96,29.92,29.86,10,10,10,14,4,20,0.00,,,175
2013-10-4,89,80,71,73,71,68,94,77,55,29.95,29.91,29.87,10,10,10,14,5,17,0.00,,,182
2013-10-5,78,64,51,75,61,50,100,95,83,30.08,30.00,29.88,10,9,1,13,2,,0.93,,Rain-Thunderstorm,223
2013-10-6,69,56,44,52,48,43,100,77,46,30.07,30.04,30.00,10,10,2,12,4,20,0.00,,,268
2013-10-7,77,60,42,55,49,43,100,77,34,30.17,30.11,30.05,10,10,2,7,2,,0.00,,,79
2013-10-8,77,60,42,55,50,43,100,79,41,30.18,30.12,30.05,10,9,0,8,1,,0.00,,Fog,89
2013-10-9,78,60,42,59,53,43,100,80,39,30.14,30.08,30.03,10,9,0,5,0,,0.00,,Fog,206
2013-10-10,80,64,48,64,57,48,100,81,48,30.11,30.04,29.94,10,8,0,9,1,,0.00,,Fog,169
2013-10-11,82,68,55,72,65,55,100,84,66,29.97,29.92,29.87,10,10,10,14,3,22,0.00,,,169
2013-10-12,78,71,64,73,70,64,100,91,78,30.12,30.02,29.91,10,10,5,9,2,,0.05,,Rain-Thunderstorm,235
2013-10-13,78,70,62,70,66,61,100,86,65,30.29,30.21,30.11,10,10,5,7,1,,0.00,,,90
2013-10-14,68,64,60,68,62,52,100,89,64,30.22,30.11,29.98,10,8,2,6,0,,0.25,,Rain,100
2013-10-15,71,63,55,72,63,54,100,99,94,30.10,29.99,29.90,10,8,2,9,1,17,1.50,,Rain,306
2013-10-16,62,56,51,55,51,46,100,83,63,30.13,30.07,30.01,10,10,4,12,2,,0.12,,Rain,354
2013-10-17,68,55,42,55,50,43,100,84,52,30.11,30.05,29.99,10,9,0,7,1,,0.00,,Fog-Rain,135
2013-10-18,64,54,44,59,52,45,100,95,72,30.06,30.03,29.97,10,9,1,7,1,,0.05,,Rain,350
2013-10-19,60,51,42,50,44,39,100,83,45,30.20,30.12,30.07,10,10,5,12,2,16,0.01,,Rain,303
2013-10-20,71,55,39,52,45,39,100,77,35,30.07,30.00,29.91,10,10,2,14,2,16,0.00,,,179
2013-10-21,59,52,44,55,51,45,100,96,82,30.13,30.04,29.99,10,9,2,9,1,,0.31,,Rain-Thunderstorm,7
2013-10-22,71,54,37,54,47,37,100,83,43,30.14,30.07,29.98,10,6,0,16,3,20,0.01,,Fog,225
2013-10-23,71,56,41,55,47,41,100,78,38,30.21,30.11,30.02,10,9,1,6,0,,0.00,,,27
2013-10-24,64,53,42,52,45,39,100,75,42,30.40,30.24,30.08,10,10,3,12,3,18,0.00,,,355
2013-10-25,60,50,39,46,38,32,93,68,41,30.52,30.41,30.28,10,10,2,7,2,,0.00,,,112
2013-10-26,64,53,42,59,50,41,100,90,68,30.28,30.19,30.11,10,9,3,9,2,16,0.38,,Rain-Thunderstorm,223
2013-10-27,69,61,51,61,57,52,100,96,73,30.13,30.07,30.01,10,4,0,7,0,,0.06,,Fog-Rain,198
2013-10-28,71,60,48,64,56,48,100,92,64,30.18,30.12,30.05,10,6,0,6,0,,0.00,,Fog,101
2013-10-29,77,68,60,70,67,61,100,86,74,30.15,30.07,30.02,10,10,7,17,5,26,0.00,,Rain,185
2013-10-30,77,70,64,70,66,61,100,86,65,30.04,29.97,29.84,10,10,10,26,6,36,0.06,,Rain-Thunderstorm,187
2013-10-31,78,66,53,72,60,48,100,83,41,29.84,29.70,29.58,10,10,10,21,7,33,0.00,,Rain,225